Location: Grasslands National Park East Block
(49.0708°N, 106.5295°W)
Time: 21:16:32
(UTC-06:00)

Vanguard 1 Rocket - Pass Details

Date: 26 September 2019
Orbit: 650 x 4226 km, 34.3° (Epoch: 13 October)

Event Time Altitude Azimuth Distance (km) Brightness Sun altitude
Rises 15:57:00 0° 215° (SW) 8,280 13.4 26.5°
Reaches altitude 10° 16:03:28 10° 208° (SSW) 7,396 13.3 25.6°
Maximum altitude 16:24:59 36° 153° (SSE) 5,073 11.4 22.7°
Drops below altitude 10° 16:41:06 10° 96° (E) 5,658 11.0 20.4°
Sets 16:45:07 0° 88° (E) 6,237 11.1 19.8°
